Location: Gisborne
(38.6530°S, 178.0040°E)
Time: 02:16:12
(UTC+13:00)

ISS - Pass Details

Date: 01 February 2019
Orbit: 403 x 411 km, 51.6° (Epoch: 16 February)

Event Time Altitude Azimuth Distance (km) Brightness Sun altitude
Exits shadow 03:48:09 25° 91° (E) 876 -1.8 -24.3°
Drops below altitude 10° 03:49:58 10° 113° (ESE) 1,495 -0.1 -24.1°
Sets 03:52:10 0° 122° (ESE) 2,362 1.3 -23.8°
